weather.gov     
National Weather Service

Terminal Aerodrome Forecast
NWS Homepage
This page is being discontinued on March 12, 2014.
The same data is available at this site. Please update your bookmarks.
Thank you, and we apologize for the inconvenience.
Please send an email to SR-SRH.Webmaster@noaa.gov with any concerns.


Current Version
Previous Version:    01  02  03  04  05  06  07  08  09  10  11  12  13  14  15  16  17  18  19  20  21  22  23  24  25  26  27  28  29  30  
   31  32  33  34  35  36  37  38  39  40  41  
[Printable]
975
FTUS41 KRNK 272339
TAFBCB
TAF
KBCB 272339Z 2800/2824 30012G20KT P6SM -SHSN BKN025 OVC035
      TEMPO 2800/2804 5SM -SHSN
     FM280400 30008KT P6SM -SHSN SCT018 OVC025
     FM281300 28008KT P6SM BKN028
     FM281700 27008KT P6SM SCT035=


975
FTUS41 KRNK 272339
TAFBCB
TAF
KBCB 272339Z 2800/2824 30012G20KT P6SM -SHSN BKN025 OVC035
      TEMPO 2800/2804 5SM -SHSN
     FM280400 30008KT P6SM -SHSN SCT018 OVC025
     FM281300 28008KT P6SM BKN028
     FM281700 27008KT P6SM SCT035=




U.S. Dept. of Commerce
NOAA National Weather Service
1325 East West Highway
Silver Spring, MD 20910
E-mail: w-nws.webmaster@noaa.gov
Page last modified: May 16, 2007
NATIONAL WEATHER SERVICE: for Safety, for Work, for Fun - FOR LIFE